Terminal Aerodrome Forecast
Issued by NWS

Home | Current Version | Previous Version | Text Only | Print | Product List | Glossary On
Versions: 1 2 3 4 5 6 7 8 9 10 11 12 13 14 15 16 17 18 19 20 21 22
000
FTUS44 KOUN 272320
TAFLAW
TAF
KLAW 272320Z 2800/2824 18007KT P6SM SKC
     FM281600 22012G18KT P6SM SCT100=

USA.gov is the U.S. government's official web portal to all federal, state and local government web resources and services.